Battle Creek, MI

6:08 AM EDT on July 30, 2016 (GMT -0400)
Kellogg

Weather History for KBTL - March, 2014

Change the Weather History Date:

Saturday, March 1, 2014

  Actual Average Record
Temperature  
Mean Temperature 20 °F 30 °F  
Max Temperature 25 °F 40 °F 57 °F (1997)
Min Temperature 14 °F 20 °F 6 °F (2015)
Degree Days  
Heating Degree Days 45 35  
Month to date heating degree days 45 35  
Since 1 July heating degree days 5499 5000  
Cooling Degree Days 0 0  
Month to date cooling degree days 0 0  
Year to date cooling degree days 0 0  
Moisture  
Dew Point 14 °F    
Average Humidity 72    
Maximum Humidity 88    
Minimum Humidity 56    
Precipitation  
Precipitation 0.09 in 0.06 in 0.58 in (2004)
Month to date precipitation 0.09 0.06  
Year to date precipitation 1.62 3.06  
Sea Level Pressure  
Sea Level Pressure 30.16 in    
Wind  
Wind Speed 8 mph (WNW)    
Max Wind Speed 15 mph    
Max Gust Speed 18 mph    
Visibility 5 miles    
Events Snow    
T = Trace of Precipitation, MM = Missing Value Source: NWS Daily Summary

Daily Weather History Graph

Daily Weather History Graph

Search for Another Location

Airport or City:

Trip Planner

Search our weather history database for the weather conditions in past years. The results will help you decide how hot, cold, wet, or windy it might be!

Date:

Astronomy

Mar. 01, 2014 Rise Set
Actual Time 7:16 AM EST 6:30 PM EST
Civil Twilight 6:48 AM EST 6:59 PM EST
Nautical Twilight 6:15 AM EST 7:31 PM EST
Astronomical Twilight 5:43 AM EST 8:04 PM EST
Moon 7:08 AM EST (3/1) 7:19 PM EST (3/1)
Length of Visible Light 12h 10m
Length of Day
11h 14m
New Moon, 0% of the Moon is Illuminated
Mar 1
New Moon
Mar 8
First Quarter
Mar 16
Full
Mar 23
Last Quarter
Mar 30
New

Hourly Weather History & Observations

Time (EST) Temp. Windchill Dew Point Humidity Pressure Visibility Wind Dir Wind Speed Gust Speed Precip Events Conditions
12:53 AM 19.0 °F - 7.0 °F 59% 30.09 in 10.0 mi Calm Calm - N/A   Clear
1:53 AM 19.9 °F 13.4 °F 8.1 °F 60% 30.06 in 10.0 mi SSE 4.6 mph - N/A   Overcast
2:53 AM 21.9 °F 15.7 °F 9.0 °F 58% 30.05 in 10.0 mi South 4.6 mph - N/A   Overcast
3:53 AM 21.9 °F 14.5 °F 9.0 °F 58% 30.05 in 10.0 mi SSW 5.8 mph - N/A   Scattered Clouds
4:53 AM 21.0 °F 14.6 °F 10.0 °F 63% 30.06 in 10.0 mi SSW 4.6 mph - N/A   Overcast
5:53 AM 21.9 °F 17.2 °F 10.9 °F 63% 30.07 in 10.0 mi SSW 3.5 mph - N/A   Overcast
6:42 AM 23.0 °F 14.7 °F 12.0 °F 63% 30.03 in 10.0 mi SW 6.9 mph - N/A   Overcast
6:53 AM 23.0 °F 15.8 °F 12.9 °F 65% 30.08 in 9.0 mi WSW 5.8 mph - N/A   Overcast
7:07 AM 23.0 °F 15.8 °F 12.9 °F 65% 30.04 in 4.0 mi SW 5.8 mph - 0.00 in Snow Light Snow
7:14 AM 23.0 °F 15.8 °F 12.9 °F 65% 30.04 in 6.0 mi SW 5.8 mph - 0.00 in Snow Light Snow
7:42 AM 23.0 °F 14.7 °F 16.0 °F 74% 30.05 in 1.8 mi SW 6.9 mph - 0.00 in Snow Light Snow
7:53 AM 23.0 °F 15.8 °F 17.1 °F 78% 30.10 in 2.0 mi SW 5.8 mph - 0.00 in Snow Light Snow
8:02 AM 24.1 °F 17.0 °F 17.1 °F 75% 30.05 in 6.0 mi SW 5.8 mph - 0.00 in Snow Light Snow
8:22 AM 24.1 °F 17.0 °F 18.0 °F 77% 30.06 in 6.0 mi SW 5.8 mph - 0.00 in Snow Light Snow
8:53 AM 24.1 °F 17.0 °F 19.0 °F 81% 30.12 in 8.0 mi West 5.8 mph - 0.00 in   Overcast
9:28 AM 24.1 °F 16.0 °F 19.0 °F 81% 30.08 in 7.0 mi WNW 6.9 mph - N/A   Overcast
9:46 AM 24.1 °F 14.4 °F 19.0 °F 81% 30.10 in 7.0 mi NW 9.2 mph - N/A   Overcast
9:53 AM 24.1 °F 14.4 °F 19.0 °F 81% 30.14 in 6.0 mi NW 9.2 mph - N/A   Haze
10:53 AM 24.1 °F 14.4 °F 17.1 °F 75% 30.17 in 8.0 mi NW 9.2 mph - 0.00 in   Overcast
11:53 AM 24.1 °F 16.0 °F 18.0 °F 77% 30.17 in 9.0 mi NNW 6.9 mph - N/A   Overcast
12:07 PM 24.1 °F 17.0 °F 17.1 °F 75% 30.13 in 10.0 mi NW 5.8 mph - N/A   Overcast
12:17 PM 24.1 °F 15.2 °F 17.1 °F 75% 30.13 in 9.0 mi NW 8.1 mph - N/A   Overcast
12:43 PM 24.1 °F 14.4 °F 16.0 °F 71% 30.14 in 10.0 mi NW 9.2 mph - N/A   Overcast
12:53 PM 24.1 °F 13.7 °F 16.0 °F 71% 30.19 in 10.0 mi NW 10.4 mph - N/A   Overcast
1:53 PM 24.1 °F 15.2 °F 15.1 °F 69% 30.17 in 10.0 mi NW 8.1 mph - N/A   Overcast
2:53 PM 25.0 °F 15.5 °F 16.0 °F 69% 30.18 in 7.0 mi WNW 9.2 mph - N/A   Overcast
3:53 PM 24.1 °F 14.4 °F 16.0 °F 71% 30.19 in 7.0 mi NW 9.2 mph - 0.00 in   Overcast
4:50 PM 23.0 °F 14.7 °F 14.0 °F 68% 30.15 in 3.0 mi NNW 6.9 mph - 0.00 in Snow Light Snow
4:53 PM 23.0 °F 14.7 °F 14.0 °F 68% 30.19 in 3.0 mi NNW 6.9 mph - 0.00 in Snow Light Snow
4:58 PM 23.0 °F 13.1 °F 15.1 °F 72% 30.15 in 1.8 mi NNW 9.2 mph - 0.00 in Snow Light Snow
5:19 PM 21.9 °F 12.5 °F 15.1 °F 75% 30.16 in 2.5 mi NNW 8.1 mph - 0.00 in Snow Light Snow
5:28 PM 21.9 °F 11.7 °F 15.1 °F 75% 30.16 in 2.5 mi NW 9.2 mph - 0.00 in Snow Light Snow
5:35 PM 21.9 °F 9.8 °F 15.1 °F 75% 30.18 in 3.0 mi NW 12.7 mph - 0.00 in Snow Light Snow
5:43 PM 21.9 °F 10.4 °F 15.1 °F 75% 30.18 in 2.0 mi NW 11.5 mph - 0.00 in Snow Light Snow
5:53 PM 21.0 °F 9.3 °F 15.1 °F 78% 30.23 in 2.5 mi NW 11.5 mph - 0.00 in Snow Light Snow
6:04 PM 21.0 °F 10.6 °F 15.1 °F 78% 30.19 in 4.0 mi NW 9.2 mph - 0.00 in Snow Light Snow
6:50 PM 21.2 °F 8.9 °F 14.0 °F 74% 30.21 in 2.5 mi NW 12.7 mph - 0.00 in Snow Light Snow
6:53 PM 19.9 °F 6.2 °F 14.0 °F 78% 30.25 in 1.8 mi NW 15.0 mph - 0.00 in Snow Light Snow
7:47 PM 19.4 °F 8.6 °F 14.0 °F 80% 30.21 in 3.0 mi NW 9.2 mph - 0.02 in Snow Light Snow
7:48 PM 19.0 °F 9.0 °F 14.0 °F 81% 30.26 in 3.0 mi NW 8.1 mph - 0.02 in Snow Light Snow
7:55 PM 19.0 °F 8.2 °F 14.0 °F 81% 30.21 in 3.0 mi NW 9.2 mph - 0.00 in Snow Light Snow
8:08 PM 18.0 °F 6.9 °F 14.0 °F 84% 30.21 in 1.8 mi NW 9.2 mph - 0.00 in Snow Light Snow
8:31 PM 18.0 °F 7.7 °F 14.0 °F 84% 30.22 in 0.8 mi NW 8.1 mph - 0.01 in Snow Light Snow
8:53 PM 18.0 °F 6.1 °F 14.0 °F 84% 30.27 in 0.8 mi NW 10.4 mph - 0.03 in Snow Light Snow
9:44 PM 16.0 °F 5.3 °F 12.0 °F 84% 30.23 in 0.8 mi North 8.1 mph - 0.02 in Snow Light Snow
9:53 PM 16.0 °F 4.4 °F 12.0 °F 84% 30.28 in 0.8 mi North 9.2 mph - 0.02 in Snow Light Snow
10:00 PM 16.0 °F 4.4 °F 12.0 °F 84% 30.24 in 1.0 mi North 9.2 mph - 0.00 in Snow Light Snow
10:53 PM 15.1 °F 3.3 °F 10.9 °F 84% 30.31 in 1.0 mi NW 9.2 mph - 0.02 in Snow Light Snow
11:30 PM 14.0 °F 3.9 °F 10.0 °F 84% 30.25 in 2.5 mi NNW 6.9 mph - 0.00 in Snow Light Snow
11:53 PM 14.0 °F 1.2 °F 9.0 °F 80% 30.30 in 2.0 mi North 10.4 mph - 0.00 in Snow Light Snow